When you browse on this site, cookies collect data to enhance your experience and personalize the content and advertising you see.
Visit our Privacy Policy to learn more. By continuing to use the site, you agree to this use of cookies and data.
  • en France
  • Liste des pays
  • À 7 jours
  • Température de l'eau
  • Carte satellitaire
  • Carte météo
  • Widgets météo
  • user-avatar
    Se connecter

    Météo par heure à Kavarna

    Ce jour, 23 Mars, Samedi

    Heure Température Précipitation Vent Pression Humidité
    00:00 +8°C° 0 mm 4 m/s 768 mmHg 64%
    01:00 +10°C° 0 mm 4 m/s 768 mmHg 62%
    02:00 +9°C° 0 mm 5 m/s 767 mmHg 58%
    03:00 +9°C° 0 mm 5 m/s 767 mmHg 64%
    04:00 +8°C° 0 mm 5 m/s 767 mmHg 70%
    05:00 +8°C° 0 mm 5 m/s 767 mmHg 77%
    06:00 +8°C° 0 mm 5 m/s 767 mmHg 74%
    07:00 +9°C° 0 mm 6 m/s 767 mmHg 71%
    08:00 +9°C° 0 mm 6 m/s 767 mmHg 66%
    09:00 +10°C° 0 mm 6 m/s 767 mmHg 60%
    10:00 +10°C° 0 mm 6 m/s 767 mmHg 54%
    11:00 +11°C° 0 mm 6 m/s 767 mmHg 48%
    12:00 +11°C° 0 mm 6 m/s 767 mmHg 45%
    13:00 +12°C° 0 mm 5 m/s 767 mmHg 42%
    14:00 +12°C° 0 mm 5 m/s 767 mmHg 39%
    15:00 +12°C° 0 mm 5 m/s 766 mmHg 39%
    16:00 +10°C° 0 mm 5 m/s 766 mmHg 39%
    17:00 +10°C° 0 mm 5 m/s 766 mmHg 39%
    18:00 +10°C° 0 mm 4 m/s 767 mmHg 47%
    19:00 +7°C° 0 mm 4 m/s 767 mmHg 55%
    20:00 +7°C° 0 mm 3 m/s 767 mmHg 62%
    21:00 +7°C° 0 mm 2 m/s 767 mmHg 63%
    22:00 +6°C° 0 mm 2 m/s 767 mmHg 65%
    23:00 +7°C° 0 mm 1 m/s 768 mmHg 66%

    Demain, 24 Mars, Dimanche

    Heure Température Précipitation Vent Pression Humidité
    00:00 +7°C° 0 mm 1 m/s 768 mmHg 64%
    01:00 +6°C° 0 mm 2 m/s 767 mmHg 63%
    02:00 +4°C° 0 mm 3 m/s 767 mmHg 62%
    03:00 +4°C° 0 mm 3 m/s 767 mmHg 60%
    04:00 +4°C° 0 mm 4 m/s 767 mmHg 58%
    05:00 +4°C° 0 mm 4 m/s 767 mmHg 56%
    06:00 +4°C° 0 mm 4 m/s 767 mmHg 56%
    07:00 +5°C° 0 mm 5 m/s 767 mmHg 55%
    08:00 +6°C° 0 mm 5 m/s 767 mmHg 54%
    09:00 +7°C° 0 mm 4 m/s 767 mmHg 51%
    10:00 +8°C° 0 mm 4 m/s 767 mmHg 47%
    11:00 +10°C° 0 mm 4 m/s 767 mmHg 44%
    12:00 +11°C° 0 mm 3 m/s 767 mmHg 44%
    13:00 +11°C° 0 mm 3 m/s 766 mmHg 44%
    14:00 +11°C° 0 mm 3 m/s 766 mmHg 43%
    15:00 +11°C° 0 mm 3 m/s 765 mmHg 48%
    16:00 +10°C° 0 mm 3 m/s 765 mmHg 52%
    17:00 +9°C° 0 mm 3 m/s 765 mmHg 56%
    18:00 +8°C° 0 mm 3 m/s 765 mmHg 61%
    19:00 +8°C° 0 mm 3 m/s 765 mmHg 65%
    20:00 +7°C° 0 mm 3 m/s 765 mmHg 70%
    21:00 +7°C° 0 mm 3 m/s 764 mmHg 70%
    22:00 +5°C° 0 mm 3 m/s 764 mmHg 71%
    23:00 +5°C° 0 mm 3 m/s 764 mmHg 71%

    Après-demain, 25 Mars, Lundi

    Heure Température Précipitation Vent Pression Humidité
    00:00 +5°C° 0 mm 3 m/s 764 mmHg 71%
    01:00 +5°C° 0 mm 4 m/s 764 mmHg 72%
    02:00 +5°C° 0 mm 4 m/s 763 mmHg 72%
    03:00 +5°C° 0 mm 4 m/s 763 mmHg 72%
    04:00 +5°C° 0 mm 4 m/s 763 mmHg 72%
    05:00 +5°C° 0 mm 4 m/s 762 mmHg 72%
    06:00 +6°C° 0 mm 4 m/s 762 mmHg 69%
    07:00 +7°C° 0 mm 4 m/s 762 mmHg 65%
    08:00 +8°C° 0 mm 4 m/s 762 mmHg 62%
    09:00 +10°C° 0 mm 4 m/s 761 mmHg 57%
    10:00 +12°C° 0 mm 4 m/s 761 mmHg 53%
    11:00 +13°C° 0 mm 5 m/s 761 mmHg 48%
    12:00 +13°C° 0 mm 5 m/s 760 mmHg 48%
    13:00 +13°C° 0 mm 6 m/s 760 mmHg 49%
    14:00 +14°C° 0 mm 7 m/s 759 mmHg 50%
    15:00 +12°C° 0 mm 7 m/s 759 mmHg 53%
    16:00 +11°C° 0 mm 6 m/s 758 mmHg 57%
    17:00 +10°C° 0 mm 6 m/s 758 mmHg 61%
    18:00 +9°C° 0 mm 6 m/s 758 mmHg 65%
    19:00 +9°C° 0 mm 6 m/s 758 mmHg 68%
    20:00 +8°C° 0 mm 6 m/s 758 mmHg 72%
    21:00 +8°C° 0 mm 6 m/s 758 mmHg 74%
    22:00 +8°C° 0 mm 6 m/s 758 mmHg 76%
    23:00 +8°C° 0 mm 6 m/s 758 mmHg 77%

    26 Mars, Mardi

    Heure Température Précipitation Vent Pression Humidité
    00:00 +7°C° 0 mm 6 m/s 758 mmHg 80%
    01:00 +7°C° 0 mm 6 m/s 758 mmHg 82%
    02:00 +7°C° 0 mm 6 m/s 758 mmHg 84%
    03:00 +7°C° 0 mm 5 m/s 758 mmHg 85%
    04:00 +7°C° 0 mm 5 m/s 758 mmHg 86%
    05:00 +7°C° 0 mm 5 m/s 758 mmHg 87%
    06:00 +8°C° 0 mm 5 m/s 758 mmHg 83%
    07:00 +8°C° 0 mm 5 m/s 758 mmHg 79%
    08:00 +9°C° 0 mm 5 m/s 758 mmHg 75%
    09:00 +12°C° 0 mm 4 m/s 759 mmHg 69%
    10:00 +13°C° 0 mm 4 m/s 759 mmHg 62%
    11:00 +14°C° 0 mm 4 m/s 759 mmHg 56%
    12:00 +15°C° 0 mm 4 m/s 759 mmHg 55%
    13:00 +15°C° 0 mm 4 m/s 759 mmHg 54%
    14:00 +17°C° 0 mm 3 m/s 760 mmHg 52%
    15:00 +14°C° 0 mm 5 m/s 760 mmHg 61%
    16:00 +11°C° 0 mm 8 m/s 760 mmHg 69%
    17:00 +8°C° 0 mm 10 m/s 761 mmHg 77%
    18:00 +9°C° 0.1 mm 8 m/s 761 mmHg 77%
    19:00 +8°C° 0.1 mm 7 m/s 762 mmHg 76%
    20:00 +8°C° 0.1 mm 6 m/s 763 mmHg 76%
    21:00 +8°C° 0.2 mm 6 m/s 763 mmHg 74%
    22:00 +8°C° 0.2 mm 6 m/s 764 mmHg 73%
    23:00 +8°C° 0.2 mm 6 m/s 764 mmHg 71%

    27 Mars, Mercredi

    Heure Température Précipitation Vent Pression Humidité
    00:00 +7°C° 0 mm 6 m/s 764 mmHg 69%
    01:00 +6°C° 0 mm 7 m/s 765 mmHg 68%
    02:00 +5°C° 0 mm 8 m/s 765 mmHg 66%
    03:00 +5°C° 0 mm 8 m/s 765 mmHg 66%
    04:00 +4°C° 0 mm 8 m/s 765 mmHg 65%
    05:00 +4°C° 0 mm 8 m/s 766 mmHg 65%
    06:00 +4°C° 0 mm 7 m/s 766 mmHg 62%
    07:00 +4°C° 0 mm 7 m/s 767 mmHg 59%
    08:00 +5°C° 0 mm 6 m/s 767 mmHg 56%
    09:00 +7°C° 0 mm 6 m/s 768 mmHg 52%
    10:00 +8°C° 0 mm 5 m/s 768 mmHg 47%
    11:00 +9°C° 0 mm 5 m/s 768 mmHg 43%
    12:00 +9°C° 0 mm 5 m/s 768 mmHg 42%
    13:00 +10°C° 0 mm 4 m/s 768 mmHg 42%
    14:00 +11°C° 0 mm 4 m/s 768 mmHg 41%
    15:00 +10°C° 0 mm 4 m/s 768 mmHg 43%
    16:00 +10°C° 0 mm 4 m/s 768 mmHg 45%
    17:00 +8°C° 0 mm 4 m/s 768 mmHg 47%
    18:00 +8°C° 0 mm 3 m/s 769 mmHg 52%
    19:00 +7°C° 0 mm 3 m/s 769 mmHg 57%
    20:00 +6°C° 0 mm 2 m/s 770 mmHg 61%
    21:00 +5°C° 0 mm 3 m/s 770 mmHg 62%
    22:00 +5°C° 0 mm 3 m/s 770 mmHg 62%
    23:00 +5°C° 0 mm 4 m/s 770 mmHg 62%

    28 Mars, Jeudi

    Heure Température Précipitation Vent Pression Humidité
    00:00 +5°C° 0 mm 5 m/s 770 mmHg 60%
    01:00 +5°C° 0 mm 5 m/s 770 mmHg 59%
    02:00 +4°C° 0 mm 6 m/s 771 mmHg 57%
    03:00 +4°C° 0 mm 6 m/s 771 mmHg 58%
    04:00 +3°C° 0 mm 6 m/s 771 mmHg 60%
    05:00 +3°C° 0 mm 6 m/s 771 mmHg 61%
    06:00 +3°C° 0 mm 6 m/s 771 mmHg 59%
    07:00 +4°C° 0 mm 6 m/s 772 mmHg 58%
    08:00 +4°C° 0 mm 7 m/s 772 mmHg 56%
    09:00 +5°C° 0 mm 7 m/s 772 mmHg 52%
    10:00 +5°C° 0 mm 7 m/s 772 mmHg 49%
    11:00 +6°C° 0 mm 7 m/s 773 mmHg 45%
    12:00 +6°C° 0 mm 7 m/s 772 mmHg 44%
    13:00 +6°C° 0 mm 7 m/s 772 mmHg 43%
    14:00 +6°C° 0 mm 8 m/s 772 mmHg 42%
    15:00 +6°C° 0 mm 7 m/s 772 mmHg 44%
    16:00 +5°C° 0 mm 7 m/s 772 mmHg 45%
    17:00 +5°C° 0 mm 7 m/s 772 mmHg 46%
    18:00 +4°C° 0 mm 7 m/s 772 mmHg 49%
    19:00 +4°C° 0 mm 6 m/s 772 mmHg 52%
    20:00 +3°C° 0 mm 6 m/s 772 mmHg 55%
    21:00 +3°C° 0 mm 5 m/s 772 mmHg 56%
    22:00 +3°C° 0 mm 5 m/s 772 mmHg 56%
    23:00 +3°C° 0 mm 5 m/s 772 mmHg 57%
    Voir plus